Weather History for Cincinnati, OH

Change the Weather History Date:

Monday, April 14, 2014

  Actual Average Record
Temperature  
Mean Temperature 58 °F -  
Max Temperature 73 °F 66 °F 83 °F (1977)
Min Temperature 41 °F 43 °F 26 °F (1973)
Degree Days  
Heating Degree Days 7    
Growing Degree Days 8 (Base 50)    
Moisture  
Dew Point 53 °F    
Average Humidity 81    
Maximum Humidity 100    
Minimum Humidity 46    
Precipitation  
Precipitation 0.61 in - - ()
Sea Level Pressure  
Sea Level Pressure 29.72 in    
Wind  
Wind Speed 16 mph (WSW)    
Max Wind Speed 29 mph    
Max Gust Speed 38 mph    
Visibility 8 miles    
Events Rain    
Averages and records for this station are not official NWS values.
T = Trace of Precipitation, MM = Missing Value Source: NWS Daily Summary

Daily Weather History Graph

Daily Weather History Graph

Search for Another Location

Airport:

Trip Planner

Search our weather history database for the weather conditions in past years. The results will help you decide how hot, cold, wet, or windy it might be!

Date:

Astronomy

Apr. 14, 2014 Rise Set
Actual Time 7:02 AM EDT 8:14 PM EDT
Civil Twilight 6:34 AM EDT 8:41 PM EDT
Nautical Twilight 6:01 AM EDT 9:14 PM EDT
Astronomical Twilight 5:27 AM EDT 9:49 PM EDT
Moon 7:52 PM EDT (4/14) 6:33 AM EDT (4/14)
Length of Visible Light 14h 06m
Length of Day
13h 11m
Full, 100% of the Moon is Illuminated
Apr 14
Full
Apr 15
Full
Apr 22
Last Quarter
Apr 29
New
May 6
First Quarter

Hourly Weather History & Observations

Time (EDT) Temp. Windchill Dew Point Humidity Pressure Visibility Wind Dir Wind Speed Gust Speed Precip Events Conditions
12:53 AM 70.0 °F - 51.1 °F 51% 29.74 in 10.0 mi South 12.7 mph - N/A   Clear
1:53 AM 73.0 °F - 51.1 °F 46% 29.71 in 10.0 mi South 18.4 mph 26.5 mph N/A   Clear
2:53 AM 73.0 °F - 51.1 °F 46% 29.69 in 10.0 mi South 16.1 mph 26.5 mph N/A   Clear
3:53 AM 72.0 °F - 52.0 °F 49% 29.68 in 10.0 mi South 16.1 mph 25.3 mph N/A   Mostly Cloudy
4:53 AM 71.6 °F - 53.6 °F 53% 29.68 in 10.0 mi South 15.0 mph 27.6 mph N/A   Overcast
5:53 AM 64.0 °F - 57.9 °F 80% 29.69 in 7.0 mi SSW 16.1 mph 24.2 mph 0.03 in Rain Light Rain
6:53 AM 64.9 °F - 57.0 °F 75% 29.69 in 10.0 mi SSW 16.1 mph 28.8 mph 0.01 in   Overcast
7:53 AM 64.0 °F - 55.9 °F 75% 29.69 in 10.0 mi SSW 13.8 mph - 0.00 in   Overcast
8:53 AM 62.1 °F - 57.9 °F 86% 29.69 in 6.0 mi SSW 11.5 mph - 0.01 in Rain Light Rain
9:53 AM 63.0 °F - 57.9 °F 84% 29.70 in 7.0 mi SSW 25.3 mph 35.7 mph 0.02 in Rain Light Rain
10:53 AM 64.0 °F - 57.9 °F 80% 29.72 in 8.0 mi SSW 28.8 mph 38.0 mph 0.00 in   Overcast
11:22 AM 63.0 °F - 57.9 °F 84% 29.74 in 10.0 mi SSW 17.3 mph 31.1 mph 0.00 in Rain Light Rain
11:43 AM 63.0 °F - 59.0 °F 87% 29.74 in 10.0 mi SSW 21.9 mph 26.5 mph 0.00 in   Overcast
11:53 AM 63.0 °F - 59.0 °F 87% 29.74 in 8.0 mi SSW 24.2 mph 32.2 mph 0.00 in   Overcast
12:03 PM 62.1 °F - 57.9 °F 86% 29.75 in 5.0 mi SW 26.5 mph 36.8 mph 0.00 in Rain Light Rain
12:53 PM 61.0 °F - 57.9 °F 90% 29.74 in 5.0 mi SSW 17.3 mph 28.8 mph 0.01 in Rain Light Rain
1:53 PM 62.6 °F - 59.0 °F 88% 29.74 in 5.0 mi SW 18.4 mph 28.8 mph N/A Rain Light Rain
2:24 PM 63.0 °F - 60.1 °F 90% 29.73 in 10.0 mi SSW 17.3 mph - 0.00 in   Overcast
2:53 PM 64.9 °F - 59.0 °F 81% 29.72 in 10.0 mi SSW 18.4 mph 23.0 mph 0.00 in   Overcast
3:53 PM 64.0 °F - 57.9 °F 80% 29.71 in 10.0 mi SSW 13.8 mph - 0.00 in   Overcast
4:53 PM 66.0 °F - 59.0 °F 78% 29.69 in 10.0 mi SSW 11.5 mph 25.3 mph 0.00 in   Overcast
5:53 PM 64.9 °F - 57.0 °F 75% 29.67 in 10.0 mi SSW 11.5 mph - N/A   Overcast
6:53 PM 64.0 °F - 55.9 °F 75% 29.67 in 10.0 mi SW 9.2 mph - N/A   Overcast
7:31 PM 60.1 °F - 54.0 °F 80% 29.69 in 10.0 mi NNW 20.7 mph 27.6 mph 0.00 in Rain Light Rain
7:45 PM 57.0 °F - 52.0 °F 83% 29.69 in 10.0 mi NNW 12.7 mph 21.9 mph 0.00 in Rain Light Rain
7:53 PM 55.9 °F - 52.0 °F 87% 29.69 in 10.0 mi NNW 9.2 mph - 0.00 in Rain Light Rain
8:26 PM 54.0 °F - 51.1 °F 90% 29.71 in 10.0 mi North 10.4 mph - 0.02 in Rain Light Rain
8:53 PM 51.1 °F - 48.9 °F 92% 29.73 in 3.0 mi NNW 13.8 mph 21.9 mph 0.11 in Rain Heavy Rain
9:17 PM 48.0 °F - 46.0 °F 93% 29.77 in 4.0 mi NNW 13.8 mph 24.2 mph 0.11 in Rain Heavy Rain
9:53 PM 46.0 °F 39.9 °F 44.1 °F 93% 29.79 in 10.0 mi NW 13.8 mph 18.4 mph 0.16 in Rain Light Rain
10:08 PM 46.0 °F 41.9 °F 44.1 °F 93% 29.77 in 10.0 mi NNW 8.1 mph - 0.00 in Rain Light Rain
10:50 PM 44.6 °F 39.2 °F 42.8 °F 93% 29.78 in 9.0 mi NW 10.4 mph - 0.03 in Rain Rain
10:53 PM 44.1 °F 38.6 °F 43.0 °F 96% 29.79 in 8.0 mi NW 10.4 mph - 0.03 in Rain Light Rain
11:10 PM 43.0 °F 37.7 °F 42.1 °F 97% 29.78 in 2.0 mi North 9.2 mph 19.6 mph 0.13 in Rain Heavy Rain
11:14 PM 44.1 °F 39.5 °F 42.1 °F 93% 29.78 in 3.0 mi North 8.1 mph 19.6 mph 0.13 in Rain Rain
11:53 PM 41.0 °F 34.3 °F 41.0 °F 100% 29.80 in 4.0 mi NNW 11.5 mph 24.2 mph 0.23 in Rain Rain